RH
80 80 80 83 86 93 90 91 90 92 94 96 96 96 96 97 97 97 97 96 95 95 96 97 95 92 97 73 62 50 56 70 84 92 87 86 93 90 84 90 82 83 80
78 81 81 82 86 95 91 92 92 92 96 95 96 97 97 97 97 97 97 96 97 95 96 96 94 87 93 93 77 66 68 82 82 87 90 89 89 88 93 89 77 67 84
76 83 84 88 89 89 93 89 93 93 93 97 97 97 97 97 98 97 96 96 96 93 94 89 90 92 94 94 82 78 86 78 78 80 87 87 91 89 95 86 86 86 74
73 78 84 85 86 85 85 88 94 91 93 96 97 96 96 98 97 97 98 97 96 97 96 87 83 87 90 87 89 85 91 89 83 77 84 79 86 93 94 96 94 89 85
74 77 80 78 81 89 87 89 94 94 94 95 96 97 97 97 96 97 98 97 97 97 97 87 88 87 85 82 81 97 95 92 82 82 86 96 93 98 84 97 91 95 93
75 76 74 78 83 90 93 96 96 96 97 97 97 96 98 94 92 95 94 97 97 97 98 97 94 88 91 86 82 90 85 87 88 88 95 77 77 90 89 96 97 97 96
74 75 75 79 85 92 94 96 95 97 98 97 96 96 97 97 94 94 94 97 96 97 97 98 95 80 88 89 89 90 89 85 75 71 79 76 89 75 83 96 96 96 94
72 75 76 78 88 94 96 96 96 97 98 98 98 97 97 96 96 96 95 97 98 97 93 92 94 86 89 84 82 83 94 94 88 71 66 67 67 69 68 69 78 89 94
76 79 82 80 88 96 96 97 97 98 99 99 98 98 98 97 98 95 96 98 98 98 88 94 88 91 88 87 80 80 88 88 87 86 84 80 81 80 74 80 96 97 97
81 81 86 87 90 95 94 96 98 98 98 99 98 98 97 97 99 95 95 96 98 99 94 96 92 86 88 91 85 88 88 81 79 88 90 92 91 90 85 67 82 91 94
94 93 94 94 94 95 97 98 98 98 97 98 97 98 97 97 97 97 97 96 96 98 98 98 97 90 88 93 88 94 87 80 74 79 86 89 94 97 93 88 82 77 88
95 95 96 96 96 98 98 98 98 98 98 98 98 98 99 98 97 99 99 96 98 93 90 97 90 92 91 92 94 91 92 84 79 77 83 85 89 91 91 93 90 90 86
92 97 97 97 98 98 98 99 99 98 99 99 99 99 100 100 99 98 99 97 93 93 84 86 84 88 93 93 92 91 93 93 88 87 85 83 83 81 88 87 88 89 90
94 97 98 99 99 99 100 99 99 100 99 99 99 99 99 99 99 100 99 99 95 91 94 86 82 82 85 90 94 91 93 98 92 86 84 80 79 79 74 78 77 82 83
96 96 97 98 96 97 98 98 98 96 99 98 99 99 99 99 96 99 100 99 99 97 97 89 88 84 88 86 83 91 95 92 98 92 85 83 82 80 78 83 76 80 69
97 97 98 96 98 97 99 99 100 98 98 100 100 100 95 97 100 100 100 100 100 99 96 93 86 82 75 72 74 74 84 82 82 88 92 88 82 82 82 95 92 83 79
94 97 98 99 99 99 99 99 99 100 91 99 99 100 100 100 100 100 100 100 100 99 93 85 82 78 71 68 68 67 66 66 76 76 76 78 80 84 84 90 97 94 90
91 98 99 99 99 99 99 98 97 96 94 95 99 100 100 100 100 100 100 100 100 99 92 87 86 82 75 67 66 65 68 71 62 68 73 74 74 70 76 71 76 70 71
93 93 95 98 99 100 99 98 97 97 97 97 96 100 100 100 100 100 100 98 98 98 95 96 87 84 83 70 63 66 68 70 64 59 58 56 66 68 64 61 64 72 70
76 76 91 97 99 99 99 97 96 97 96 98 98 97 99 100 100 99 99 98 98 98 98 95 93 90 74 70 70 69 70 71 70 68 72 67 67 66 67 68 68 68 68
74 77 86 96 98 98 95 98 96 93 96 97 95 95 100 99 99 98 99 98 97 93 92 96 92 94 91 80 72 74 72 70 69 71 71 74 77 80 78 75 74 73 69
75 76 80 93 94 98 98 94 94 96 95 94 91 86 100 99 99 98 94 94 95 94 89 92 96 94 92 88 77 73 74 72 72 72 72 71 74 77 77 79 78 77 76
82 81 77 83 92 98 99 98 96 93 93 93 95 95 97 99 97 96 94 91 95 95 92 88 92 96 96 88 80 75 71 71 71 71 73 74 73 74 75 76 76 76 75
78 75 78 80 81 88 95 97 98 100 97 93 96 95 96 96 97 93 92 91 90 82 80 84 82 78 83 86 84 79 74 70 68 67 69 73 74 77 72 73 72 71 70
81 78 80 80 79 81 86 94 97 97 97 93 91 91 93 93 94 93 90 92 95 97 96 93 90 85 82 82 84 81 85 95 81 80 75 70 73 76 72 71 72 74 76
83 72 71 78 80 79 83 87 91 96 97 97 96 96 96 97 95 93 93 94 94 94 90 89 91 93 90 86 84 95 100 100 96 100 84 83 79 77 79 76 78 79 83
Wind_Speed
13 12 12 11 11 8 8 8 8 7 7 7 7 6 6 6 6 6 6 5 6 5 5 5 6 4 3 5 6 7 6 3 4 2 2 2 4 5 4 3 3 3 4
12 12 13 11 9 9 10 9 8 9 7 8 7 7 7 6 6 7 7 6 7 6 6 6 7 4 5 5 5 8 7 5 4 5 2 3 3 5 4 4 3 3 3
13 13 11 11 11 12 11 10 9 9 9 7 7 7 7 7 7 7 7 7 7 7 6 6 6 6 5 4 6 7 5 4 4 5 4 2 2 3 3 2 2 2 3
13 12 13 13 13 12 12 11 10 11 11 9 8 9 8 8 8 8 7 7 6 6 6 6 7 7 7 6 6 8 6 6 4 5 3 4 3 3 3 3 3 3 4
12 12 15 14 12 10 10 10 10 10 10 9 8 8 7 7 7 9 8 8 7 7 6 6 6 7 10 8 5 6 7 5 5 4 4 3 3 4 9 4 4 1 2
13 15 13 11 11 11 10 9 8 9 7 9 10 10 9 8 11 13 11 8 7 6 6 6 6 9 8 9 7 8 11 10 7 5 4 6 8 4 5 5 4 3 2
13 12 12 11 11 11 11 9 10 10 7 9 11 11 11 9 13 14 15 7 8 7 6 6 5 4 7 6 5 7 8 8 12 12 10 8 6 9 8 5 5 5 5
10 8 10 10 11 11 10 10 10 7 9 9 9 10 9 9 13 15 15 8 6 6 7 8 7 6 6 7 6 4 5 6 7 6 10 11 10 11 13 10 9 5 2
7 7 7 9 9 10 11 12 8 6 6 8 5 7 7 6 12 14 12 6 5 6 6 6 7 6 8 10 7 6 4 2 1 6 6 6 9 15 11 8 4 4 3
7 8 6 6 8 11 12 9 4 5 5 6 6 6 7 7 11 13 12 5 5 4 4 5 12 11 13 13 7 7 6 5 4 3 2 2 6 7 16 12 7 5 3
6 5 4 5 5 6 4 5 5 5 5 5 5 4 5 6 6 12 14 7 6 5 6 5 5 10 11 13 10 7 8 6 6 4 2 1 2 5 6 6 7 6 5
7 4 4 4 3 4 6 4 7 7 6 5 5 4 4 5 6 10 14 12 10 8 7 5 6 12 12 11 10 10 10 8 5 4 3 3 3 3 4 5 5 4 2
11 7 5 5 4 5 5 5 3 4 4 4 4 4 4 4 4 8 12 12 10 6 4 8 11 13 11 8 12 12 11 5 5 4 5 4 4 3 3 2 2 2 2
10 10 6 4 1 5 6 9 7 7 4 1 2 3 3 4 4 4 5 5 5 6 7 6 6 7 6 6 5 5 5 6 6 5 5 4 3 3 4 4 3 3 2
6 5 7 7 9 12 10 11 8 9 7 8 6 5 5 6 7 9 9 8 7 6 6 3 2 3 4 4 3 5 5 5 5 4 5 5 4 4 4 4 4 3 5
7 5 3 2 2 9 8 4 16 19 4 10 17 11 7 11 14 16 15 13 14 17 4 4 4 6 7 8 8 7 5 9 7 7 5 5 5 5 5 4 4 5 5
6 6 4 4 3 6 6 6 5 7 20 17 20 20 17 14 15 13 17 16 15 16 7 9 9 9 9 8 7 8 9 9 8 9 8 8 7 5 6 5 5 5 6
8 9 4 4 5 5 7 6 6 4 10 12 9 14 15 18 18 15 15 12 5 7 8 10 11 10 11 10 9 9 7 5 8 9 9 9 9 8 6 7 6 9 9
7 6 5 6 5 6 5 6 4 4 7 6 3 1 8 2 3 6 18 9 10 10 11 11 11 11 11 10 11 9 9 9 9 8 9 8 8 9 9 8 8 12 11
8 13 8 6 4 5 5 6 7 4 5 4 4 5 3 4 3 4 6 6 9 11 12 13 12 11 11 11 11 11 10 10 11 10 9 9 10 10 10 10 10 9 9
7 8 9 5 6 5 7 7 8 7 6 6 7 5 8 5 4 5 6 7 8 9 9 9 9 10 10 11 10 10 12 12 12 12 10 10 10 10 10 10 10 10 9
8 9 8 5 5 6 7 8 8 8 9 9 9 8 11 5 6 5 6 7 9 10 8 9 10 10 10 11 11 12 13 14 13 13 13 13 12 12 11 11 10 10 10
8 9 9 6 5 6 6 7 8 9 8 10 8 7 4 4 5 6 7 8 8 8 9 10 10 10 10 12 12 14 14 15 15 14 14 13 12 11 11 12 12 11 11
10 9 8 6 5 4 5 6 7 9 9 8 7 8 8 7 7 10 9 8 7 9 9 9 11 15 13 13 12 13 13 13 11 12 16 13 13 13 13 12 12 15 13
10 8 6 6 5 5 5 5 6 7 7 7 7 8 8 7 8 9 9 8 8 8 9 8 9 14 18 19 16 18 17 15 16 13 11 15 15 16 13 12 12 12 14
10 9 7 6 6 6 5 5 5 5 6 7 7 7 7 7 8 8 7 8 8 9 11 9 11 16 16 13 17 20 19 18 17 18 13 12 13 11 10 14 16 11 12
Wind_Direction
195 195 197 204 205 203 205 199 201 199 199 201 203 204 204 204 198 198 213 217 228 230 218 212 222 195 169 177 170 176 178 142 125 191 135 140 148 167 198 174 224 164 166
195 195 202 198 194 197 206 205 193 204 201 204 198 196 199 203 194 199 208 213 222 221 224 203 212 186 181 204 188 182 184 152 131 136 130 129 167 181 166 177 216 201 198
188 194 199 199 194 200 207 207 196 199 207 200 195 199 198 196 193 201 203 208 217 219 221 199 188 172 192 181 193 180 161 148 138 136 147 137 129 146 128 162 211 265 212
192 193 198 202 202 201 203 201 203 204 207 201 196 205 206 190 196 197 199 207 212 218 215 205 177 186 188 190 191 190 158 152 130 130 119 134 123 128 120 154 227 216 224
197 199 209 209 203 204 209 207 206 204 204 208 199 210 199 202 198 194 197 203 207 220 207 202 181 189 198 183 168 178 160 147 141 140 121 127 159 146 192 177 201 169 259
199 210 210 207 198 197 209 202 198 217 222 194 206 208 199 211 205 199 191 202 205 205 207 218 196 178 190 187 196 171 173 156 154 145 154 180 189 176 149 171 140 132 240
206 211 207 203 199 200 206 199 208 208 192 211 215 209 207 212 204 198 196 193 198 196 187 181 199 172 171 164 192 200 190 194 181 169 169 186 167 186 149 159 166 170 203
212 210 211 206 198 198 198 207 219 204 198 211 222 223 223 211 193 203 193 186 189 184 179 174 188 175 177 166 160 168 198 199 189 193 188 186 195 173 179 184 188 176 98
214 213 208 205 195 190 202 205 214 199 189 201 201 212 215 228 199 200 177 172 183 190 185 171 177 170 191 169 157 170 161 178 24 218 210 201 181 175 165 126 150 131 229
227 229 215 200 190 196 208 200 171 176 190 182 191 215 209 223 196 192 171 170 185 179 179 185 194 189 177 174 166 166 180 208 174 156 171 220 199 182 167 189 162 164 153
325 299 229 217 206 209 178 160 166 174 179 183 200 212 220 210 200 183 176 179 186 181 196 184 201 182 175 183 174 171 192 158 193 183 184 140 121 174 190 193 176 163 159
310 268 233 224 226 166 174 181 181 171 183 188 183 200 204 197 203 190 188 191 172 190 193 180 197 180 191 184 181 188 163 156 150 167 170 213 195 199 206 185 187 184 181
355 313 292 250 178 183 189 192 173 198 184 192 187 192 194 185 178 183 198 190 181 178 191 197 177 183 188 177 195 190 169 166 156 165 197 208 200 201 118 130 147 182 220
357 348 317 269 202 38 41 24 9 352 320 214 232 241 223 213 202 169 174 190 224 210 179 190 181 165 163 167 154 188 193 177 181 187 193 200 148 163 199 180 182 167 180
347 13 32 65 90 94 98 112 62 46 48 341 291 227 217 227 217 192 181 174 189 203 141 131 143 158 182 189 191 195 193 172 176 183 177 174 187 186 204 176 182 163 191
327 331 315 220 160 149 149 133 119 126 267 273 273 233 231 240 194 190 190 188 172 156 159 179 193 196 206 202 200 200 195 197 198 189 192 190 194 194 199 188 177 185 201
312 306 305 273 198 198 194 198 188 225 201 172 242 235 210 214 208 205 196 189 171 154 204 213 214 208 212 210 212 202 206 208 191 200 197 202 199 197 182 195 198 198 219
297 287 272 251 238 236 241 231 244 195 187 205 220 251 235 218 191 177 148 128 132 214 200 212 217 209 213 210 204 210 210 187 203 206 206 205 202 202 197 215 204 219 223
285 287 274 270 250 237 249 239 210 255 296 335 331 318 258 50 42 160 168 182 184 196 208 215 217 207 205 206 211 203 196 195 202 206 216 205 199 200 215 216 216 216 213
281 275 261 272 253 244 246 254 266 236 250 248 259 236 152 127 189 157 219 240 222 205 201 208 212 219 218 210 203 196 197 195 200 207 210 206 205 205 212 215 216 219 218
292 290 280 274 267 243 250 247 252 245 234 239 248 228 195 197 208 205 202 218 240 245 227 223 225 214 209 203 203 206 206 203 203 207 210 210 204 210 208 214 211 211 214
282 285 286 272 273 265 251 243 254 263 262 250 253 251 202 213 208 201 225 219 226 232 233 218 217 216 212 212 213 207 208 213 209 203 207 207 203 209 204 206 209 211 213
282 279 280 281 267 277 277 258 252 250 254 266 275 276 241 219 239 230 228 230 213 218 225 230 225 228 227 221 215 211 215 217 216 204 201 208 206 208 209 212 208 211 211
300 285 274 272 278 268 273 272 264 255 259 256 252 255 259 254 241 255 252 249 241 243 241 232 233 237 230 225 220 222 224 225 219 223 213 209 205 203 207 209 209 213 218
291 285 283 282 282 280 278 266 261 266 263 256 253 246 251 250 243 237 243 246 239 231 242 237 232 238 242 234 221 220 222 211 215 207 210 222 220 211 208 215 213 214 214
287 284 271 272 277 279 276 275 274 261 258 267 262 256 249 245 252 257 251 242 243 242 245 250 246 245 242 238 235 223 221 213 215 215 210 210 221 223 220 219 215 211 210